Hourly Weather Gogolevo

Today, 25 November, Wednesday

Time Temperature Precipitation Wind Pressure Humidity
00:00 +2°C° 0 mm 1 mps 753 mmHg 94%
01:00 +2°C° 0 mm 1 mps 754 mmHg 95%
02:00 +2°C° 0 mm 1 mps 754 mmHg 97%
03:00 +3°C° 0.2 mm 1 mps 754 mmHg 97%
04:00 +3°C° 0.2 mm 1 mps 753 mmHg 97%
05:00 +3°C° 0.2 mm 1 mps 753 mmHg 97%
06:00 +1°C° 0 mm 0 mps 754 mmHg 97%
07:00 +1°C° 0 mm 0 mps 754 mmHg 97%
08:00 +1°C° 0 mm 0 mps 755 mmHg 96%
09:00 +1°C° 0 mm 0 mps 755 mmHg 95%
10:00 +2°C° 0 mm 0 mps 756 mmHg 93%
11:00 +2°C° 0 mm 0 mps 756 mmHg 91%
12:00 +2°C° 0 mm 0 mps 756 mmHg 92%
13:00 +2°C° 0 mm 0 mps 756 mmHg 92%
14:00 +3°C° 0 mm 0 mps 757 mmHg 92%
15:00 +3°C° 0 mm 1 mps 757 mmHg 93%
16:00 +3°C° 0 mm 1 mps 757 mmHg 94%
17:00 +3°C° 0 mm 1 mps 756 mmHg 95%
18:00 +2°C° 0.1 mm 2 mps 756 mmHg 95%
19:00 +3°C° 0.1 mm 2 mps 756 mmHg 95%
20:00 +3°C° 0.1 mm 2 mps 756 mmHg 95%
21:00 +4°C° 0.3 mm 2 mps 756 mmHg 95%
22:00 +3°C° 0.3 mm 3 mps 756 mmHg 96%
23:00 +4°C° 0.3 mm 3 mps 755 mmHg 97%

Tomorrow, 26 November, Thursday

Time Temperature Precipitation Wind Pressure Humidity
00:00 +4°C° 0.5 mm 3 mps 755 mmHg 97%
01:00 +5°C° 0.5 mm 3 mps 755 mmHg 96%
02:00 +5°C° 0.5 mm 3 mps 755 mmHg 96%
03:00 +5°C° 0.2 mm 3 mps 754 mmHg 95%
04:00 +5°C° 0.2 mm 3 mps 754 mmHg 93%
05:00 +7°C° 0.2 mm 3 mps 754 mmHg 92%
06:00 +5°C° 0 mm 3 mps 754 mmHg 89%
07:00 +5°C° 0 mm 3 mps 754 mmHg 87%
08:00 +5°C° 0 mm 4 mps 754 mmHg 85%
09:00 +5°C° 0 mm 4 mps 753 mmHg 84%
10:00 +5°C° 0 mm 4 mps 753 mmHg 83%
11:00 +5°C° 0 mm 4 mps 752 mmHg 82%
12:00 +5°C° 0 mm 4 mps 752 mmHg 83%
13:00 +5°C° 0 mm 4 mps 752 mmHg 83%
14:00 +5°C° 0 mm 4 mps 752 mmHg 84%
15:00 +5°C° 0 mm 4 mps 752 mmHg 84%
16:00 +4°C° 0 mm 4 mps 751 mmHg 85%
17:00 +4°C° 0 mm 4 mps 751 mmHg 86%
18:00 +4°C° 0.1 mm 4 mps 750 mmHg 86%
19:00 +3°C° 0.1 mm 4 mps 750 mmHg 87%
20:00 +3°C° 0.1 mm 4 mps 750 mmHg 87%
21:00 +3°C° 0.5 mm 4 mps 749 mmHg 88%
22:00 +3°C° 0.5 mm 4 mps 749 mmHg 89%
23:00 +3°C° 0.5 mm 4 mps 749 mmHg 90%

Day after tomorrow, 27 November, Friday

Time Temperature Precipitation Wind Pressure Humidity
00:00 +3°C° 0.4 mm 4 mps 749 mmHg 91%
01:00 +3°C° 0.4 mm 3 mps 749 mmHg 91%
02:00 +4°C° 0.4 mm 3 mps 749 mmHg 92%
03:00 +3°C° 0.2 mm 3 mps 748 mmHg 92%
04:00 +4°C° 0.2 mm 2 mps 748 mmHg 92%
05:00 +4°C° 0.2 mm 2 mps 748 mmHg 93%
06:00 +4°C° 0 mm 2 mps 748 mmHg 89%
07:00 +2°C° 0 mm 3 mps 748 mmHg 85%
08:00 +2°C° 0 mm 3 mps 749 mmHg 81%
09:00 +1°C° 0 mm 3 mps 749 mmHg 80%
10:00 +1°C° 0 mm 3 mps 749 mmHg 80%
11:00 +1°C° 0 mm 3 mps 749 mmHg 79%
12:00 +1°C° 0.1 mm 3 mps 750 mmHg 83%
13:00 +1°C° 0.1 mm 3 mps 750 mmHg 88%
14:00 +1°C° 0.1 mm 2 mps 750 mmHg 92%
15:00 +1°C° 0.1 mm 2 mps 751 mmHg 92%
16:00 0°C° 0.1 mm 3 mps 751 mmHg 91%
17:00 0°C° 0.1 mm 3 mps 751 mmHg 90%
18:00 -1°C° 0 mm 2 mps 752 mmHg 90%
19:00 -1°C° 0 mm 2 mps 752 mmHg 90%
20:00 -1°C° 0 mm 2 mps 753 mmHg 90%
21:00 -1°C° 0 mm 2 mps 753 mmHg 90%
22:00 -1°C° 0 mm 2 mps 754 mmHg 90%
23:00 -1°C° 0 mm 2 mps 754 mmHg 90%

28 November, Saturday

Time Temperature Precipitation Wind Pressure Humidity
00:00 -1°C° 0 mm 2 mps 755 mmHg 92%
01:00 +1°C° 0 mm 2 mps 755 mmHg 93%
02:00 +1°C° 0 mm 2 mps 756 mmHg 94%
03:00 +1°C° 0 mm 2 mps 756 mmHg 93%
04:00 +1°C° 0 mm 2 mps 756 mmHg 92%
05:00 +2°C° 0 mm 2 mps 757 mmHg 92%
06:00 +2°C° 0 mm 2 mps 757 mmHg 93%
07:00 +2°C° 0 mm 2 mps 758 mmHg 95%
08:00 +2°C° 0 mm 2 mps 758 mmHg 97%
09:00 +2°C° 0.1 mm 2 mps 759 mmHg 94%
10:00 +1°C° 0.1 mm 3 mps 759 mmHg 91%
11:00 +1°C° 0.1 mm 3 mps 759 mmHg 88%
12:00 +1°C° 0 mm 3 mps 760 mmHg 89%
13:00 0°C° 0 mm 3 mps 760 mmHg 90%
14:00 0°C° 0 mm 3 mps 761 mmHg 91%
15:00 0°C° 0 mm 3 mps 761 mmHg 91%
16:00 0°C° 0 mm 3 mps 761 mmHg 91%
17:00 -1°C° 0 mm 3 mps 762 mmHg 91%
18:00 -1°C° 0 mm 3 mps 762 mmHg 90%
19:00 -1°C° 0 mm 3 mps 762 mmHg 90%
20:00 -1°C° 0 mm 3 mps 763 mmHg 89%
21:00 -1°C° 0 mm 2 mps 763 mmHg 90%
22:00 -1°C° 0 mm 2 mps 763 mmHg 90%
23:00 -1°C° 0 mm 2 mps 764 mmHg 91%

29 November, Sunday

Time Temperature Precipitation Wind Pressure Humidity
00:00 -1°C° 0 mm 2 mps 764 mmHg 91%
01:00 -2°C° 0 mm 2 mps 764 mmHg 91%
02:00 -2°C° 0 mm 2 mps 764 mmHg 91%
03:00 -2°C° 0 mm 2 mps 764 mmHg 91%
04:00 -2°C° 0 mm 2 mps 764 mmHg 91%
05:00 -2°C° 0 mm 2 mps 764 mmHg 91%
06:00 -2°C° 0 mm 2 mps 764 mmHg 90%
07:00 -2°C° 0 mm 2 mps 765 mmHg 90%
08:00 -2°C° 0 mm 2 mps 765 mmHg 90%
09:00 -2°C° 0 mm 2 mps 765 mmHg 88%
10:00 -2°C° 0 mm 2 mps 765 mmHg 87%
11:00 -2°C° 0 mm 2 mps 765 mmHg 86%
12:00 -1°C° 0 mm 2 mps 765 mmHg 86%
13:00 -1°C° 0 mm 2 mps 765 mmHg 86%
14:00 -1°C° 0 mm 2 mps 765 mmHg 86%
15:00 -1°C° 0 mm 2 mps 765 mmHg 86%
16:00 -1°C° 0 mm 2 mps 765 mmHg 86%
17:00 -1°C° 0 mm 2 mps 765 mmHg 86%
18:00 -1°C° 0 mm 2 mps 764 mmHg 87%
19:00 -1°C° 0 mm 2 mps 764 mmHg 87%
20:00 -1°C° 0 mm 2 mps 764 mmHg 88%
21:00 -2°C° 0 mm 2 mps 764 mmHg 89%
22:00 -2°C° 0 mm 2 mps 764 mmHg 91%
23:00 -2°C° 0 mm 2 mps 764 mmHg 92%

30 November, Monday

Time Temperature Precipitation Wind Pressure Humidity
00:00 -2°C° 0 mm 2 mps 763 mmHg 93%
01:00 -2°C° 0 mm 3 mps 763 mmHg 93%
02:00 -1°C° 0 mm 3 mps 762 mmHg 93%
03:00 -1°C° 0.1 mm 3 mps 762 mmHg 94%
04:00 -1°C° 0.1 mm 3 mps 761 mmHg 94%
05:00 -1°C° 0.1 mm 2 mps 761 mmHg 95%
06:00 -1°C° 0 mm 2 mps 761 mmHg 95%
07:00 +1°C° 0 mm 2 mps 760 mmHg 96%
08:00 +1°C° 0 mm 2 mps 760 mmHg 97%
09:00 +1°C° 0.1 mm 2 mps 760 mmHg 97%
10:00 +1°C° 0.1 mm 2 mps 759 mmHg 97%
11:00 +2°C° 0.1 mm 2 mps 759 mmHg 96%
12:00 +2°C° 0.2 mm 2 mps 759 mmHg 97%
13:00 +2°C° 0.2 mm 2 mps 759 mmHg 97%
14:00 +2°C° 0.2 mm 2 mps 758 mmHg 97%
15:00 +1°C° 0.3 mm 2 mps 758 mmHg 97%
16:00 +1°C° 0.3 mm 2 mps 758 mmHg 97%
17:00 +1°C° 0.3 mm 2 mps 758 mmHg 97%
18:00 +1°C° 0.2 mm 2 mps 758 mmHg 97%
19:00 +1°C° 0.2 mm 2 mps 759 mmHg 97%
20:00 -1°C° 0.2 mm 3 mps 759 mmHg 96%
21:00 -1°C° 0.1 mm 3 mps 759 mmHg 95%
22:00 -1°C° 0.1 mm 3 mps 759 mmHg 94%
23:00 -2°C° 0.1 mm 3 mps 759 mmHg 93%
Show more

We Need Your Consent

Meteoprog and our Service Providers may store and access personal data such as cookies, device identifiers or other similar technologies on your device and process such data to personalise content and ads, as well as provide social media features and to analyse the traffic.

  • Store and/or access information on your device

    Cookies, device identifiers or other information can be stored or accessed on your device for the purposes indicated above.

  • Personalised ads and content, ad and content measurement, audience insights, and products development

    Ads and content can be personalised based on a profile. More data can be added to better personalise ads and content. Ad and content performance can be measured. Insights about the audience who saw the ads and content can be derived. Such data can be used to develop or improve user’s experience, systems and software.

By clicking ‘I Agree’ you will allow the use of indicated cookies, device identifiers, web beacons or other similar technologies. Your settings can be changed in the browser on your device.

For certain purposes, legitimate interests may be relied on, rather than consent. You can read more about this in our Privacy and Cookie Policy.